STARLINK-32809, 62849

Orbit data source: Space-Track

STARLINK-32809, 62849 is a payload satellite owned by SpaceX/Seattle (US) in LEO that was launched on Mon, 27 Jan 2025 UTC via an FALCON 9 launch vehicle from the Air Force Eastern Test Range (AFETR). Payload-class satellites include a variety of spacecraft equipped with specific instruments for various scientific and technological missions. These include communications satellites like Starlink; space stations such as the ISS; scientific satellites like the Hubble; Earth observation satellites from companies like Planet Labs, Umbra, and HawkEye 360; GPS; miniature CubeSats for education and research; and military/defense satellites.

Loading next visibility...
Identifier
62849, 2025-019W
Orbit
LEO
Last TLE update
14 hours ago
Origin
Manufacturer
SpaceX/Seattle
Mission
Operational Commercial Communications
Bus & Motor
STARLINK V2M, Unknown motor
Mass
730 kg wet, ~700 kg dry
Launch date (UTC)
2025-01-27 (5 months ago)
Launch vehicle
FALCON 9
Launch site
Air Force Eastern Test Range (AFETR)
Object type
Payload
Rocket body
Debris
Shape & HBR
Box + 2 Pan, 29 m
Radar Cross Section
33.884 m², Large (>1 m²)

Expand to show TLE details & history

TLE from 14 hours ago
0 STARLINK-32809
1 62849U 25019W   25191.81991962 -.00000225  00000-0  13484-5 0  9994
2 62849  43.0043  14.6213 0001373 285.3712  74.6686 15.27574705 26237
Epoch: 2025-07-10T19:40Z
TLE epoch observation values (Epoch: 2025-07-10T19:40:41.055Z)
Latitude
-0.02073°
Longitude
150.44742°
Altitude
482.595 km
Speed
7.626 km/s
True Right ascension
00h 58m 23s
True Declination
0° 01' 14"
Sunlit
Object was in daylight at epoch
Visualization orbit readout
Latitude
-24.2087°
Longitude
118.53613°
Altitude
488.151 km
Speed
7.622 km/s
Apparent Right ascension
01h 20m 42s
Apparent Declination
-74° 33' 59"
Sunlit
Object is in full shadow
Visualization observer readout
Local Sidereal Time
21:56:13
Azimuth
166.248° S
Elevation
-29.367°
Doppler factor
1
Orbital elements
Apogee altitude
485.952 km
Perigee altitude
484.067 km
Semi-major axis
6,863.146 km
Eccentricity
0.00014
Inclination
43.0043°
RAAN
14.6213°
Arg. of periapsis
285.3712°
True anomaly
Unknown
Mean anomaly
74.6686°
Eccentric anomaly
Unknown
Mean motion
3.81732 °/min
Orbital period
94.31 mins
BSTAR
0.0000013484
Loading maneuver chart data...
Loading SW <> Apogee altitude chart data...
Loading historical data...
Loading historical data...
Loading historical data...
Loading historical data...
Loading historical data...
Loading historical data...
Loading historical data...

STARLINK-32809 Visibility forecast

Observer location: undefined°, undefined°

Span
Click to sort rows by Start time (UTC) header in descending order
Start Az.
Max El. time (UTC)
Max El. Az.
Max El.
End time (UTC)
End Az.
5 mins2025-07-11 14:41:29.198Z186.863° SSW2025-07-11 14:43:29.198Z152.724° SSE17.735°2025-07-11 14:46:29.198Z98.789° ESE
5 mins2025-07-11 16:20:29.198Z243.433° WSW2025-07-11 16:22:29.198Z151.14° SSE44.545°2025-07-11 16:25:29.198Z73.566° E
5 mins2025-07-11 17:59:29.198Z288.733° WNW2025-07-11 18:01:29.198Z352.136° N38.23°2025-07-11 18:04:29.198Z71.554° E
5 mins2025-07-11 19:38:29.198Z292.454° WNW2025-07-11 19:40:29.198Z335.152° NNW43.136°2025-07-11 19:43:29.198Z98.873° ESE
5 mins2025-07-11 21:17:29.198Z261.84° W2025-07-11 21:19:29.198Z212.569° SW27.453°2025-07-11 21:22:29.198Z150.673° SSE
|